User: anonymous   Login
Location: Newark
(45.2500°N, 7.7167°E)
Time: 13:34:49
(UTC+00:00)
Language:

LightSail 2 - Orbit

View from above orbital plane
View from above orbital plane
View from above satellite
View from above satellite

Ground track
Ground track

The orbit data is extracted from the following two-line orbital elements,

1 44420U 19036AC  19325.50125873 +.00002762 +00000-0 +59600-3 0  9994
2 44420 024.0102 346.0147 0021502 032.0094 328.1709 14.53680500019864
Epoch (UTC): 21 November 2019 12:01:48
Eccentricity: 0.0021502
inclination: 24.0102°
perigee height: 698 km
apogee height: 729 km
right ascension of ascending node: 346.0147°
argument of perigee: 32.0094°
revolutions per day: 14.53680500
mean anomaly at epoch: 328.1709°
orbit number at epoch: 1986

The dashed part of the orbit path shows where the satellite is in the earth's shadow,  

DLR